This is the latest recevied weather packets stored in our database for station/object KF4ERV-4. If no packets are shown the sender has not sent any weather packets the latest 1 day(s).
| Time | Temp. | Humidity | Pressure | Rain* | Wind** | Luminosity | Snow |
|---|---|---|---|---|---|---|---|
| 1778083565 | 15° C | 87% | 1015 hPa | 0 mm | - | - | - |
| 1778083494 | 15° C | 87% | 1015 hPa | 0 mm | - | - | - |
| 1778082879 | 14.44° C | 81% | 1014.8 hPa | 0 mm | - | - | - |
| 1778082779 | 14.44° C | 81% | 1014.8 hPa | 0 mm | - | - | - |
| 1778082113 | 13.33° C | 58% | 1014.5 hPa | 0 mm | - | - | - |
| 1778081998 | 13.33° C | 58% | 1014.5 hPa | 0 mm | - | - | - |
| 1778081567 | 12.78° C | 50% | 1014 hPa | 0 mm | - | - | - |
| 1778081533 | 12.78° C | 50% | 1014 hPa | 0 mm | - | - | - |
| 1778081246 | 12.78° C | 44% | 1014 hPa | 0 mm | - | - | - |
| 1778081132 | 12.78° C | 44% | 1014 hPa | 0 mm | - | - | - |
| 1778080989 | 12.78° C | 33% | 1014 hPa | 0 mm | - | - | - |
| 1778080834 | 12.78° C | 33% | 1014 hPa | 0 mm | - | - | - |
| 1778080699 | 12.22° C | 38% | 1014 hPa | 0 mm | - | - | - |
| 1778080663 | 12.22° C | 38% | 1014 hPa | 0 mm | - | - | - |
| 1778080628 | 11.67° C | 15% | 1014 hPa | 0 mm | - | - | - |
| 1778080229 | 12.22° C | 35% | 1014 hPa | 0 mm | - | - | - |
| 1778080195 | 12.22° C | 35% | 1014 hPa | 0 mm | - | - | - |
| 1778080121 | 12.22° C | 30% | 1014 hPa | 0 mm | - | - | - |
| 1778079863 | 11.67° C | 15% | 1014 hPa | 0 mm | - | - | - |
| 1778079720 | 11.67° C | 15% | 1014 hPa | 0 mm | - | - | - |
| 1778079216 | 11.11° C | 7% | 1014 hPa | 0 mm | - | - | - |
| 1778078996 | 11.11° C | 7% | 1014 hPa | 0 mm | - | - | - |
| 1778078818 | 10.56° C | 59% | 1014 hPa | 0 mm | - | - | - |
| 1778078590 | 9.44° C | 55% | 1014 hPa | 0 mm | - | - | - |
| 1778078398 | 10.56° C | 59% | 1014 hPa | 0 mm | - | - | - |
* Rain latest hour (hover to see other rain measurements)
** Current wind speed in m/s (hover to see current wind gust speed)